Home   Weather   Bradford   Past weeks
Flag for United Kingdom

Past Weather in Bradford, England, United Kingdom — Yesterday and Last 2 Weeks

Now
50 °F

Light rain. Scattered clouds.


Feels Like: 42 °F
Forecast: 52 / 36 °F
Wind: 29 mph from South

Location: Leeds And Bradford

Current Time: Dec 10, 2019 at 1:07:55 pm

Latest Report: Dec 10, 2019 at 11:50 am


Visibility: N/A

Pressure: 29.53 "Hg

Humidity: 82%

Dew Point: 45 °F

Location of BradfordLocation

Past Weather in Bradford — Graph

°F

Bradford Temperature Yesterday

Maximum temperature yesterday: 43 °F (at 12:50 am)
Minimum temperature yesterday: 32 °F (at 9:20 pm)
Average temperature yesterday: 39 °F

High & Low Weather Summary for the Past Weeks

 TemperatureHumidityPressure
High52 °F (Dec 5, 10:20 pm)100% (Nov 25, 11:20 am)30.42 "Hg (Nov 25, 11:20 am)
Low30 °F (Nov 29, 11:20 pm)66% (Dec 9, 12:20 pm)29.00 "Hg (Nov 27, 2:50 pm)
Average42 °F89%29.77 "Hg
* Reported Nov 25 11:20 am — Dec 10 11:20 am, Bradford. Weather by CustomWeather, © 2019

Note: Actual official high and low records may vary slightly from our data, if they occured in-between our weather recording intervals... More about our weather records

Bradford Weather History for the Previous 24 Hours

Scroll right to see more
 ConditionsComfort  
Time TempWeatherWind HumidityBarometerVisibility
11:20 am
Tue, Dec 10
48 °FLight rain. Partly sunny.29 mph87%29.56 "HgN/A
10:50 am48 °FLight rain. Scattered clouds.26 mph87%29.59 "HgN/A
10:20 am46 °FLight rain. Scattered clouds.24 mph87%29.62 "HgN/A
9:50 am46 °FLight rain. Scattered clouds.23 mph82%29.65 "HgN/A
9:20 am46 °FLight rain. Scattered clouds.22 mph82%29.68 "HgN/A
8:50 am45 °FLight rain. Scattered clouds.21 mph87%29.71 "HgN/A
8:20 am45 °FLight rain. Scattered clouds.16 mph87%29.77 "HgN/A
7:50 am43 °FSprinkles. Passing clouds.14 mph87%29.77 "HgN/A
7:20 am43 °FSprinkles. Passing clouds.13 mph87%29.80 "HgN/A
6:50 am43 °FPassing clouds.12 mph81%29.86 "HgN/A
6:20 am41 °FSprinkles. Passing clouds.16 mph87%29.86 "HgN/A
5:50 am41 °FPassing clouds.18 mph87%29.89 "HgN/A
5:20 am39 °FPassing clouds.2 mph87%29.92 "HgN/A
4:50 am39 °FPassing clouds.7 mph87%29.95 "HgN/A
4:20 am36 °FPassing clouds.9 mph93%29.95 "HgN/A
3:50 am36 °FClear.12 mph93%29.98 "Hg10 mi
3:20 am36 °FClear.9 mph87%30.01 "Hg10 mi
2:50 am36 °FClear.7 mph93%30.04 "Hg10 mi
2:20 am36 °FClear.5 mph87%30.04 "Hg10 mi
1:50 am36 °FClear.7 mph93%30.07 "Hg10 mi
1:20 am37 °FClear.10 mph87%30.09 "Hg10 mi
12:50 am36 °FClear.10 mph93%30.09 "Hg10 mi
12:20 am36 °FClear.7 mph93%30.12 "Hg10 mi
11:50 pm
Mon, Dec 9
36 °FClear.12 mph93%30.12 "Hg10 mi
11:20 pm34 °FClear.8 mph87%30.12 "Hg10 mi
10:50 pm34 °FClear.8 mph87%30.12 "Hg10 mi
10:20 pm34 °FClear.6 mph87%30.12 "Hg10 mi
9:50 pm34 °FClear.7 mph87%30.12 "Hg10 mi
9:20 pm32 °FClear.6 mph93%30.15 "Hg10 mi
8:50 pm34 °FClear.7 mph87%30.15 "Hg10 mi
8:20 pm34 °FClear.9 mph93%30.15 "Hg10 mi
7:50 pm34 °FClear.9 mph87%30.12 "Hg10 mi
7:20 pm34 °FClear.6 mph87%30.12 "Hg10 mi
6:50 pm34 °FPassing clouds.5 mph87%30.09 "HgN/A
6:20 pm36 °FPassing clouds.5 mph81%30.12 "HgN/A
5:50 pm36 °FClear.8 mph81%30.09 "Hg10 mi
5:20 pm36 °FClear.9 mph81%30.09 "Hg10 mi
4:50 pm37 °FClear.5 mph75%30.09 "Hg10 mi
4:20 pm37 °FPassing clouds.6 mph70%30.07 "HgN/A
3:50 pm37 °FPassing clouds.6 mph70%30.04 "HgN/A
3:20 pm39 °FSunny.10 mph70%30.04 "Hg10 mi
2:50 pm39 °FPassing clouds.14 mph70%30.01 "HgN/A
2:20 pm41 °FPassing clouds.16 mph66%30.01 "HgN/A
1:50 pm41 °FPassing clouds.17 mph66%29.98 "HgN/A
1:20 pm41 °FSunny.20 mph70%29.95 "Hg10 mi
Weather by CustomWeather, © 2019

See weather overview

Advertising